AFR750 FMMI-FIMP

Flight info

Callsign AFR750
Flight time 1h 23m
Altitude 41000
Route PIPRI1E TE UA400 RASMA RASMA2E
Aircraft A359/H-SDE2E3GHIJ3J4J5LM1ORWXY/LB1D1

Departure

Time 2026-04-14 10:58
Airport Ivato International Airport (FMMI)

Arrival

Time 2026-04-14 12:21
Airport Sir Seewoosagur Ramgoolam International Airport (FIMP)
Time Latitude Longitude Altitude Speed Heading
2026-04-14 09:54 -18.79957 47.47913 4170 ft 0 kts 241°
2026-04-14 10:43 -18.79955 47.47917 4170 ft 4 kts 238°
2026-04-14 10:43 -18.79937 47.47934 4170 ft 4 kts 190°
2026-04-14 10:43 -18.79910 47.47936 4170 ft 3 kts 187°
2026-04-14 10:43 -18.79901 47.47938 4170 ft 0 kts 189°
2026-04-14 10:48 -18.79906 47.47939 4170 ft 3 kts 171°
2026-04-14 10:48 -18.79917 47.47948 4170 ft 1 kts 126°
2026-04-14 10:48 -18.79917 47.47962 4169 ft 5 kts 92°
2026-04-14 10:49 -18.79902 47.48017 4168 ft 10 kts 71°
2026-04-14 10:49 -18.79865 47.48086 4166 ft 11 kts 43°
2026-04-14 10:49 -18.79831 47.48103 4166 ft 0 kts 18°
2026-04-14 10:51 -18.79818 47.48107 4166 ft 6 kts 14°
2026-04-14 10:52 -18.79752 47.48095 4168 ft 13 kts 326°
2026-04-14 10:52 -18.79710 47.47985 4172 ft 20 kts 280°
2026-04-14 10:52 -18.79684 47.47818 4171 ft 27 kts 279°
2026-04-14 10:52 -18.79651 47.47602 4181 ft 32 kts 279°
2026-04-14 10:53 -18.79613 47.47352 4187 ft 37 kts 279°
2026-04-14 10:53 -18.79572 47.47078 4193 ft 38 kts 279°
2026-04-14 10:53 -18.79532 47.46813 4202 ft 35 kts 279°
2026-04-14 10:53 -18.79497 47.46582 4207 ft 23 kts 279°
2026-04-14 10:54 -18.79482 47.46530 4209 ft 8 kts 306°
2026-04-14 10:54 -18.79442 47.46465 4211 ft 11 kts 261°
2026-04-14 10:54 -18.79466 47.46460 4212 ft 2 kts 138°
2026-04-14 10:54 -18.79482 47.46492 4210 ft 8 kts 109°
2026-04-14 10:55 -18.79495 47.46562 4208 ft 0 kts 99°
2026-04-14 10:57 -18.79527 47.46772 4203 ft 64 kts 99°
2026-04-14 10:57 -18.79628 47.47465 4184 ft 125 kts 99°
2026-04-14 10:57 -18.79800 47.48543 4294 ft 164 kts 101°
2026-04-14 10:58 -18.79969 47.49719 4981 ft 158 kts 100°
2026-04-14 10:58 -18.80140 47.50837 5666 ft 151 kts 100°
2026-04-14 10:58 -18.80363 47.51948 5971 ft 161 kts 104°
2026-04-14 10:58 -18.80544 47.52746 6062 ft 175 kts 104°
2026-04-14 10:59 -18.80851 47.54057 6167 ft 193 kts 104°
2026-04-14 10:59 -18.81168 47.55427 6370 ft 209 kts 104°
2026-04-14 10:59 -18.81518 47.56981 6587 ft 225 kts 103°
2026-04-14 10:59 -18.81884 47.58658 6830 ft 243 kts 103°
2026-04-14 11:00 -18.82267 47.60455 7055 ft 259 kts 103°
2026-04-14 11:00 -18.82667 47.62348 7483 ft 267 kts 103°
2026-04-14 11:00 -18.83071 47.64271 7957 ft 274 kts 103°
2026-04-14 11:00 -18.83347 47.66265 8349 ft 276 kts 80°
2026-04-14 11:01 -18.83316 47.68340 8361 ft 290 kts 77°
2026-04-14 11:01 -18.83288 47.70501 8541 ft 295 kts 83°
2026-04-14 11:01 -18.83423 47.72652 8985 ft 293 kts 86°
2026-04-14 11:01 -18.83682 47.74791 9337 ft 294 kts 89°
2026-04-14 11:02 -18.84036 47.76921 9661 ft 296 kts 91°
2026-04-14 11:02 -18.84455 47.79061 9971 ft 298 kts 92°
2026-04-14 11:02 -18.84907 47.81180 10264 ft 300 kts 93°
2026-04-14 11:02 -18.85375 47.83365 10310 ft 311 kts 94°
2026-04-14 11:03 -18.85876 47.85636 10324 ft 324 kts 95°
2026-04-14 11:03 -18.86416 47.87988 10358 ft 335 kts 97°
2026-04-14 11:03 -18.87008 47.90405 10427 ft 345 kts 99°
2026-04-14 11:03 -18.87651 47.92875 10643 ft 351 kts 100°
2026-04-14 11:04 -18.88302 47.95374 10897 ft 355 kts 100°
2026-04-14 11:04 -18.88933 47.97907 11164 ft 358 kts 99°
2026-04-14 11:04 -18.89534 48.00470 11408 ft 362 kts 98°
2026-04-14 11:04 -18.90112 48.03068 11668 ft 365 kts 98°
2026-04-14 11:05 -18.90676 48.05690 11944 ft 368 kts 97°
2026-04-14 11:05 -18.91235 48.08326 12260 ft 369 kts 97°
2026-04-14 11:05 -18.91782 48.10989 12484 ft 373 kts 97°
2026-04-14 11:05 -18.92334 48.13682 12731 ft 375 kts 97°
2026-04-14 11:06 -18.92895 48.16381 13034 ft 376 kts 97°
2026-04-14 11:06 -18.93452 48.19087 13288 ft 379 kts 97°
2026-04-14 11:06 -18.94005 48.21788 13505 ft 382 kts 97°
2026-04-14 11:06 -18.94567 48.24536 13762 ft 383 kts 96°
2026-04-14 11:07 -18.95098 48.27302 14057 ft 383 kts 95°
2026-04-14 11:07 -18.95596 48.30085 14222 ft 387 kts 95°
2026-04-14 11:07 -18.96090 48.32890 14407 ft 390 kts 96°
2026-04-14 11:07 -18.96598 48.35696 14726 ft 388 kts 96°
2026-04-14 11:08 -18.97103 48.38487 15030 ft 387 kts 95°
2026-04-14 11:08 -18.97596 48.41283 15207 ft 390 kts 95°
2026-04-14 11:08 -18.98102 48.44108 15459 ft 390 kts 95°
2026-04-14 11:08 -18.98613 48.46919 15730 ft 390 kts 95°
2026-04-14 11:09 -18.99124 48.49737 15935 ft 391 kts 95°
2026-04-14 11:09 -18.99633 48.52571 16120 ft 393 kts 95°
2026-04-14 11:09 -19.00151 48.55403 16393 ft 392 kts 95°
2026-04-14 11:10 -19.01176 48.61074 16829 ft 394 kts 95°
2026-04-14 11:10 -19.01689 48.63923 17045 ft 395 kts 95°
2026-04-14 11:10 -19.02198 48.66743 17256 ft 396 kts 95°
2026-04-14 11:10 -19.02710 48.69607 17406 ft 398 kts 95°
2026-04-14 11:11 -19.03230 48.72489 17620 ft 399 kts 95°
2026-04-14 11:11 -19.03753 48.75367 17852 ft 399 kts 95°
2026-04-14 11:11 -19.04272 48.78248 18043 ft 400 kts 95°
2026-04-14 11:11 -19.04791 48.81141 18239 ft 401 kts 95°
2026-04-14 11:12 -19.05310 48.84036 18411 ft 401 kts 95°
2026-04-14 11:12 -19.05830 48.86939 18577 ft 402 kts 95°
2026-04-14 11:12 -19.06352 48.89844 18749 ft 403 kts 95°
2026-04-14 11:12 -19.06874 48.92754 18900 ft 403 kts 95°
2026-04-14 11:13 -19.07396 48.95668 19058 ft 404 kts 95°
2026-04-14 11:13 -19.07919 48.98591 19227 ft 405 kts 95°
2026-04-14 11:13 -19.08443 49.01513 19412 ft 404 kts 95°
2026-04-14 11:13 -19.08964 49.04442 19549 ft 406 kts 95°
2026-04-14 11:14 -19.09487 49.07384 19696 ft 406 kts 95°
2026-04-14 11:14 -19.10010 49.10323 19837 ft 407 kts 95°
2026-04-14 11:14 -19.10533 49.13270 19976 ft 408 kts 95°
2026-04-14 11:14 -19.11057 49.16226 20107 ft 410 kts 95°
2026-04-14 11:15 -19.11578 49.19147 20266 ft 409 kts 95°
2026-04-14 11:15 -19.12105 49.22107 20425 ft 410 kts 95°
2026-04-14 11:15 -19.12628 49.25074 20539 ft 411 kts 95°
2026-04-14 11:15 -19.13154 49.28049 20684 ft 411 kts 95°
2026-04-14 11:16 -19.13683 49.31016 20874 ft 411 kts 95°
2026-04-14 11:16 -19.14205 49.33999 20944 ft 413 kts 95°
2026-04-14 11:16 -19.14731 49.36993 21063 ft 414 kts 95°
2026-04-14 11:16 -19.15264 49.39988 21244 ft 414 kts 95°
2026-04-14 11:17 -19.15792 49.42982 21366 ft 414 kts 95°
2026-04-14 11:17 -19.16317 49.45992 21447 ft 416 kts 95°
2026-04-14 11:17 -19.16849 49.49002 21605 ft 416 kts 95°
2026-04-14 11:17 -19.17372 49.51969 21743 ft 416 kts 95°
2026-04-14 11:18 -19.17897 49.54988 21800 ft 419 kts 95°
2026-04-14 11:18 -19.18428 49.58027 21898 ft 420 kts 95°
2026-04-14 11:18 -19.18964 49.61055 22057 ft 419 kts 95°
2026-04-14 11:18 -19.19495 49.64092 22151 ft 420 kts 95°
2026-04-14 11:19 -19.20027 49.67143 22241 ft 421 kts 95°
2026-04-14 11:19 -19.20560 49.70188 22375 ft 421 kts 95°
2026-04-14 11:19 -19.21092 49.73237 22481 ft 422 kts 95°
2026-04-14 11:19 -19.21622 49.76294 22568 ft 423 kts 95°
2026-04-14 11:20 -19.22155 49.79356 22672 ft 423 kts 95°
2026-04-14 11:20 -19.22685 49.82399 22786 ft 424 kts 95°
2026-04-14 11:20 -19.23217 49.85475 22849 ft 425 kts 95°
2026-04-14 11:20 -19.23752 49.88553 22964 ft 425 kts 95°
2026-04-14 11:21 -19.24286 49.91625 23082 ft 425 kts 95°
2026-04-14 11:21 -19.24821 49.94718 23247 ft 428 kts 95°
2026-04-14 11:21 -19.25363 49.97827 23607 ft 429 kts 95°
2026-04-14 11:21 -19.25900 50.00943 23887 ft 432 kts 95°
2026-04-14 11:22 -19.26438 50.04077 24161 ft 434 kts 95°
2026-04-14 11:22 -19.26979 50.07227 24466 ft 436 kts 95°
2026-04-14 11:22 -19.27523 50.10388 24789 ft 437 kts 95°
2026-04-14 11:22 -19.28069 50.13560 25117 ft 440 kts 95°
2026-04-14 11:23 -19.28609 50.16710 25447 ft 441 kts 95°
2026-04-14 11:23 -19.29156 50.19917 25787 ft 444 kts 95°
2026-04-14 11:23 -19.29705 50.23149 26104 ft 446 kts 95°
2026-04-14 11:23 -19.30257 50.26391 26428 ft 448 kts 95°
2026-04-14 11:24 -19.30812 50.29643 26770 ft 450 kts 95°
2026-04-14 11:24 -19.31368 50.32911 27075 ft 452 kts 95°
2026-04-14 11:24 -19.31927 50.36198 27396 ft 454 kts 95°
2026-04-14 11:24 -19.32487 50.39500 27710 ft 456 kts 95°
2026-04-14 11:25 -19.33050 50.42815 28014 ft 459 kts 95°
2026-04-14 11:25 -19.33615 50.46154 28299 ft 461 kts 95°
2026-04-14 11:25 -19.34182 50.49499 28607 ft 463 kts 95°
2026-04-14 11:25 -19.34744 50.52817 28895 ft 465 kts 95°
2026-04-14 11:26 -19.35314 50.56194 29165 ft 467 kts 95°
2026-04-14 11:26 -19.35887 50.59588 29442 ft 469 kts 95°
2026-04-14 11:26 -19.36462 50.62994 29714 ft 471 kts 95°
2026-04-14 11:26 -19.37037 50.66409 29971 ft 473 kts 95°
2026-04-14 11:27 -19.37613 50.69847 30169 ft 475 kts 95°
2026-04-14 11:27 -19.38196 50.73304 30388 ft 477 kts 95°
2026-04-14 11:27 -19.38781 50.76765 30607 ft 478 kts 95°
2026-04-14 11:27 -19.39365 50.80238 30816 ft 480 kts 95°
2026-04-14 11:28 -19.39951 50.83727 31019 ft 481 kts 95°
2026-04-14 11:28 -19.40539 50.87233 31217 ft 483 kts 95°
2026-04-14 11:28 -19.41125 50.90739 31392 ft 485 kts 95°
2026-04-14 11:28 -19.41716 50.94270 31572 ft 486 kts 95°
2026-04-14 11:29 -19.42298 50.97756 31757 ft 487 kts 95°
2026-04-14 11:29 -19.42888 51.01295 31922 ft 489 kts 95°
2026-04-14 11:29 -19.43480 51.04846 32095 ft 490 kts 95°
2026-04-14 11:29 -19.44072 51.08406 32254 ft 491 kts 95°
2026-04-14 11:30 -19.44665 51.11981 32407 ft 493 kts 95°
2026-04-14 11:30 -19.45258 51.15555 32548 ft 494 kts 95°
2026-04-14 11:30 -19.45853 51.19147 32705 ft 495 kts 95°
2026-04-14 11:30 -19.46449 51.22747 32826 ft 496 kts 95°
2026-04-14 11:31 -19.47045 51.26349 32975 ft 497 kts 95°
2026-04-14 11:31 -19.47641 51.29958 33095 ft 498 kts 95°
2026-04-14 11:31 -19.48237 51.33579 33229 ft 499 kts 95°
2026-04-14 11:31 -19.48834 51.37212 33333 ft 500 kts 95°
2026-04-14 11:32 -19.49425 51.40804 33441 ft 501 kts 95°
2026-04-14 11:32 -19.50024 51.44446 33558 ft 502 kts 95°
2026-04-14 11:32 -19.51221 51.51743 33765 ft 504 kts 94°
2026-04-14 11:33 -19.52421 51.59083 33930 ft 506 kts 94°
2026-04-14 11:34 -19.54226 51.70142 34137 ft 508 kts 94°
2026-04-14 11:34 -19.55425 51.77526 34298 ft 508 kts 94°
2026-04-14 11:35 -19.56600 51.84873 34419 ft 509 kts 94°
2026-04-14 11:35 -19.57781 51.92274 34552 ft 509 kts 94°
2026-04-14 11:36 -19.58962 51.99688 34662 ft 509 kts 94°
2026-04-14 11:36 -19.60136 52.07092 34770 ft 510 kts 94°
2026-04-14 11:37 -19.61318 52.14522 34852 ft 510 kts 94°
2026-04-14 11:37 -19.62490 52.21895 34941 ft 510 kts 94°
2026-04-14 11:38 -19.63665 52.29322 35015 ft 510 kts 93°
2026-04-14 11:38 -19.64838 52.36755 35050 ft 511 kts 93°
2026-04-14 11:39 -19.66015 52.44202 35134 ft 511 kts 93°
2026-04-14 11:39 -19.67187 52.51648 35189 ft 511 kts 93°
2026-04-14 11:40 -19.68352 52.59092 35168 ft 512 kts 93°
2026-04-14 11:40 -19.69519 52.66492 35244 ft 512 kts 93°
2026-04-14 11:41 -19.70686 52.73954 35288 ft 512 kts 93°
2026-04-14 11:41 -19.71847 52.81412 35289 ft 513 kts 93°
2026-04-14 11:42 -19.73014 52.88878 35346 ft 513 kts 93°
2026-04-14 11:42 -19.74175 52.96350 35378 ft 513 kts 93°
2026-04-14 11:43 -19.75330 53.03826 35391 ft 513 kts 93°
2026-04-14 11:43 -19.76488 53.11316 35414 ft 514 kts 93°
2026-04-14 11:44 -19.77643 53.18797 35446 ft 514 kts 93°
2026-04-14 11:44 -19.78784 53.26243 35474 ft 514 kts 93°
2026-04-14 11:45 -19.79932 53.33750 35440 ft 515 kts 93°
2026-04-14 11:45 -19.81084 53.41263 35484 ft 515 kts 93°
2026-04-14 11:46 -19.82227 53.48770 35503 ft 515 kts 93°
2026-04-14 11:46 -19.83366 53.56272 35525 ft 515 kts 93°
2026-04-14 11:47 -19.84496 53.63735 35541 ft 515 kts 92°
2026-04-14 11:47 -19.85629 53.71237 35555 ft 515 kts 92°
2026-04-14 11:48 -19.86759 53.78751 35546 ft 515 kts 92°
2026-04-14 11:48 -19.87710 53.85061 35553 ft 515 kts 92°
2026-04-14 11:49 -19.88832 53.92534 35564 ft 515 kts 92°
2026-04-14 11:49 -19.89956 54.00060 35579 ft 515 kts 92°
2026-04-14 11:50 -19.91080 54.07610 35504 ft 518 kts 93°
2026-04-14 11:50 -19.92211 54.15161 35557 ft 517 kts 92°
2026-04-14 11:51 -19.93885 54.26491 35567 ft 517 kts 92°
2026-04-14 11:51 -19.94998 54.34050 35562 ft 518 kts 92°
2026-04-14 11:52 -19.96106 54.41554 35638 ft 516 kts 92°
2026-04-14 11:52 -19.97205 54.49092 35666 ft 515 kts 92°
2026-04-14 11:53 -19.98298 54.56633 35614 ft 517 kts 92°
2026-04-14 11:53 -19.99405 54.64190 35631 ft 517 kts 92°
2026-04-14 11:54 -20.00505 54.71746 35635 ft 517 kts 92°
2026-04-14 11:54 -20.01594 54.79298 35589 ft 518 kts 92°
2026-04-14 11:55 -20.02688 54.86834 35607 ft 518 kts 92°
2026-04-14 11:55 -20.03780 54.94408 35628 ft 518 kts 92°
2026-04-14 11:56 -20.04867 55.01994 35622 ft 518 kts 92°
2026-04-14 11:56 -20.05955 55.09601 35577 ft 519 kts 92°
2026-04-14 11:57 -20.07037 55.17147 35596 ft 519 kts 92°
2026-04-14 11:57 -20.08116 55.24742 35618 ft 519 kts 92°
2026-04-14 11:58 -20.09188 55.32353 35564 ft 521 kts 92°
2026-04-14 11:58 -20.10271 55.39975 35593 ft 520 kts 92°
2026-04-14 11:59 -20.11344 55.47598 35606 ft 521 kts 92°
2026-04-14 11:59 -20.12459 55.55213 35520 ft 522 kts 95°
2026-04-14 12:00 -20.13783 55.62783 35655 ft 520 kts 93°
2026-04-14 12:00 -20.14904 55.70403 35546 ft 519 kts 92°
2026-04-14 12:01 -20.15412 55.74187 34804 ft 516 kts 92°
2026-04-14 12:01 -20.15934 55.77987 33929 ft 520 kts 94°
2026-04-14 12:01 -20.16471 55.81749 33005 ft 522 kts 95°
2026-04-14 12:01 -20.17027 55.85571 32015 ft 523 kts 96°
2026-04-14 12:02 -20.17593 55.89405 30984 ft 524 kts 97°
2026-04-14 12:02 -20.18163 55.93236 30001 ft 524 kts 97°
2026-04-14 12:02 -20.18721 55.97055 28976 ft 522 kts 97°
2026-04-14 12:02 -20.19261 56.00865 28047 ft 518 kts 97°
2026-04-14 12:03 -20.19616 56.04673 27265 ft 513 kts 91°
2026-04-14 12:03 -20.19689 56.08461 26534 ft 507 kts 89°
2026-04-14 12:03 -20.19698 56.12171 26020 ft 497 kts 88°
2026-04-14 12:03 -20.19693 56.15808 25528 ft 486 kts 88°
2026-04-14 12:04 -20.19678 56.19377 25041 ft 476 kts 87°
2026-04-14 12:04 -20.19652 56.22879 24565 ft 471 kts 86°
2026-04-14 12:04 -20.19631 56.26361 24091 ft 469 kts 87°
2026-04-14 12:04 -20.19622 56.29830 23636 ft 467 kts 87°
2026-04-14 12:05 -20.19622 56.33275 23096 ft 464 kts 87°
2026-04-14 12:05 -20.19626 56.36691 22564 ft 460 kts 87°
2026-04-14 12:05 -20.19630 56.40084 22026 ft 456 kts 87°
2026-04-14 12:05 -20.19634 56.43402 21518 ft 453 kts 87°
2026-04-14 12:06 -20.19636 56.46745 21002 ft 449 kts 87°
2026-04-14 12:06 -20.19637 56.50057 20504 ft 446 kts 86°
2026-04-14 12:06 -20.19638 56.53349 20006 ft 443 kts 86°
2026-04-14 12:06 -20.19638 56.56606 19522 ft 435 kts 86°
2026-04-14 12:07 -20.19624 56.59814 19044 ft 433 kts 85°
2026-04-14 12:07 -20.19608 56.63022 18575 ft 433 kts 86°
2026-04-14 12:07 -20.19605 56.66215 18078 ft 431 kts 86°
2026-04-14 12:07 -20.19609 56.69389 17548 ft 427 kts 86°
2026-04-14 12:08 -20.19613 56.72540 17011 ft 423 kts 86°
2026-04-14 12:08 -20.19618 56.75662 16504 ft 419 kts 86°
2026-04-14 12:08 -20.19620 56.78750 16000 ft 415 kts 86°
2026-04-14 12:08 -20.19616 56.81810 15539 ft 411 kts 86°
2026-04-14 12:09 -20.19610 56.84839 15064 ft 408 kts 86°
2026-04-14 12:09 -20.19604 56.87848 14602 ft 405 kts 86°
2026-04-14 12:09 -20.19598 56.90824 14143 ft 393 kts 85°
2026-04-14 12:09 -20.19567 56.93609 13663 ft 359 kts 81°
2026-04-14 12:10 -20.19482 56.96116 13140 ft 330 kts 78°
2026-04-14 12:10 -20.19378 56.98519 12631 ft 322 kts 77°
2026-04-14 12:10 -20.19286 57.00888 12140 ft 319 kts 78°
2026-04-14 12:10 -20.19223 57.03244 11643 ft 316 kts 79°
2026-04-14 12:11 -20.19185 57.05568 11173 ft 312 kts 79°
2026-04-14 12:11 -20.19161 57.07870 10704 ft 309 kts 79°
2026-04-14 12:11 -20.19144 57.10146 10238 ft 305 kts 80°
2026-04-14 12:11 -20.19132 57.12391 9771 ft 301 kts 80°
2026-04-14 12:12 -20.19123 57.14611 9262 ft 298 kts 79°
2026-04-14 12:12 -20.19113 57.16802 8768 ft 295 kts 79°
2026-04-14 12:12 -20.19103 57.18949 8280 ft 292 kts 79°
2026-04-14 12:12 -20.19093 57.20947 7831 ft 290 kts 79°
2026-04-14 12:13 -20.19082 57.23038 7368 ft 288 kts 79°
2026-04-14 12:13 -20.19073 57.25140 6896 ft 286 kts 79°
2026-04-14 12:13 -20.19192 57.27258 6403 ft 290 kts 91°
2026-04-14 12:13 -20.19808 57.29294 6100 ft 291 kts 107°
2026-04-14 12:14 -20.20863 57.31121 6047 ft 287 kts 114°
2026-04-14 12:14 -20.21999 57.32841 6035 ft 282 kts 114°
2026-04-14 12:14 -20.23114 57.34552 6030 ft 281 kts 113°
2026-04-14 12:14 -20.24213 57.36268 6034 ft 282 kts 113°
2026-04-14 12:15 -20.25304 57.38010 6027 ft 279 kts 112°
2026-04-14 12:15 -20.26390 57.39718 6030 ft 278 kts 112°
2026-04-14 12:15 -20.27472 57.41421 6029 ft 275 kts 112°
2026-04-14 12:15 -20.28484 57.42974 6009 ft 239 kts 109°
2026-04-14 12:16 -20.29392 57.44408 6013 ft 227 kts 103°
2026-04-14 12:16 -20.30225 57.45821 6021 ft 228 kts 103°
2026-04-14 12:16 -20.31050 57.47156 6043 ft 203 kts 94°
2026-04-14 12:16 -20.31715 57.48456 5689 ft 203 kts 122°
2026-04-14 12:17 -20.32582 57.49543 5658 ft 184 kts 135°
2026-04-14 12:17 -20.33549 57.50405 5610 ft 181 kts 142°
2026-04-14 12:17 -20.34557 57.51222 5450 ft 181 kts 140°
2026-04-14 12:17 -20.35415 57.52180 5157 ft 178 kts 124°
2026-04-14 12:18 -20.35997 57.53330 4898 ft 176 kts 111°
2026-04-14 12:18 -20.36404 57.54563 4641 ft 177 kts 107°
2026-04-14 12:18 -20.36887 57.55780 4185 ft 179 kts 117°
2026-04-14 12:18 -20.37537 57.56918 3729 ft 180 kts 121°
2026-04-14 12:19 -20.38253 57.58031 3292 ft 183 kts 124°
2026-04-14 12:19 -20.38879 57.59176 2971 ft 173 kts 114°
2026-04-14 12:19 -20.39390 57.60370 2267 ft 182 kts 110°
2026-04-14 12:19 -20.39894 57.61664 1589 ft 192 kts 112°
2026-04-14 12:20 -20.40434 57.62928 1225 ft 179 kts 114°
2026-04-14 12:20 -20.40980 57.64073 929 ft 173 kts 115°
2026-04-14 12:20 -20.41511 57.65188 615 ft 166 kts 114°
2026-04-14 12:20 -20.42011 57.66237 422 ft 150 kts 115°
2026-04-14 12:21 -20.42468 57.67197 231 ft 141 kts 114°
2026-04-14 12:21 -20.42867 57.68048 165 ft 103 kts 118°
2026-04-14 12:21 -20.43035 57.68382 155 ft 26 kts 118°
2026-04-14 12:21 -20.43114 57.68455 155 ft 15 kts 184°
2026-04-14 12:22 -20.43212 57.68396 154 ft 14 kts 250°
2026-04-14 12:22 -20.43180 57.68283 157 ft 22 kts 296°
2026-04-14 12:22 -20.43094 57.68105 162 ft 31 kts 298°
2026-04-14 12:22 -20.43011 57.67937 167 ft 22 kts 296°
2026-04-14 12:23 -20.42942 57.67788 171 ft 23 kts 297°
2026-04-14 12:23 -20.42909 57.67689 174 ft 10 kts 261°
2026-04-14 12:23 -20.42953 57.67628 175 ft 12 kts 219°
2026-04-14 12:23 -20.43023 57.67585 175 ft 6 kts 205°
2026-04-14 12:24 -20.43024 57.67585 175 ft 0 kts 206°